Weather History for KGCD - February, 2013

Change the Weather History Date:

Tuesday, February 26, 2013

  Actual Average (KBNO) Record (KBNO)
Temperature  
Mean Temperature 34 °F 32 °F  
Max Temperature 41 °F 43 °F 64 °F (1953)
Min Temperature 26 °F 21 °F -18 °F (2011)
Degree Days  
Heating Degree Days 32 33  
Month to date heating degree days 949  
Since 1 July heating degree days 5462  
Cooling Degree Days 0 0  
Month to date cooling degree days 0  
Year to date cooling degree days 0  
Moisture  
Dew Point 21 °F    
Average Humidity 63    
Maximum Humidity 80    
Minimum Humidity 41    
Precipitation  
Precipitation 0.00 in 0.04 in 0.46 in (2000)
Month to date precipitation 0.94  
Year to date precipitation 2.13  
Sea Level Pressure  
Sea Level Pressure 30.25 in    
Wind  
Wind Speed 6 mph (SSE)    
Max Wind Speed 14 mph    
Max Gust Speed 20 mph    
Visibility 10 miles    
Events      
T = Trace of Precipitation, MM = Missing Value Source: NWS Daily Summary

Daily Weather History Graph

Daily Weather History Graph

Search for Another Location

Airport or City:

Trip Planner

Search our weather history database for the weather conditions in past years. The results will help you decide how hot, cold, wet, or windy it might be!

Date:

Astronomy

Feb. 26, 2013 Rise Set
Actual Time 6:37 AM PST 5:40 PM PST
Civil Twilight 6:08 AM PST 6:09 PM PST
Nautical Twilight 5:34 AM PST 6:43 PM PST
Astronomical Twilight 5:01 AM PST 7:17 PM PST
Moon 7:07 PM PST (2/26) 6:38 AM PST (2/26)
Length of Visible Light 12h 01m
Length of Day
11h 02m
Full, 99% of the Moon is Illuminated
Feb 26
Full
Mar 4
Last Quarter
Mar 11
New
Mar 19
First Quarter
Mar 27
Full

Hourly Weather History & Observations

Time (PST) Temp. Windchill Dew Point Humidity Pressure Visibility Wind Dir Wind Speed Gust Speed Precip Events Conditions
12:15 AM 30.2 °F 23.4 °F 21.2 °F 69% 30.21 in 10.0 mi WSW 6.9 mph - N/A   Scattered Clouds
12:35 AM 30.2 °F 22.6 °F 21.2 °F 69% 30.21 in 10.0 mi WSW 8.1 mph - N/A   Mostly Cloudy
12:55 AM 30.2 °F 22.6 °F 23.0 °F 75% 30.22 in 10.0 mi WSW 8.1 mph - N/A   Overcast
1:15 AM 30.2 °F 24.3 °F 23.0 °F 75% 30.22 in 10.0 mi WSW 5.8 mph - N/A   Overcast
1:35 AM 30.2 °F 25.4 °F 23.0 °F 75% 30.23 in 10.0 mi West 4.6 mph - N/A   Overcast
1:55 AM 30.2 °F 25.4 °F 21.2 °F 69% 30.23 in 10.0 mi West 4.6 mph - N/A   Overcast
2:15 AM 30.2 °F 25.4 °F 23.0 °F 75% 30.23 in 10.0 mi West 4.6 mph - N/A   Overcast
2:35 AM 28.4 °F 23.3 °F 23.0 °F 80% 30.23 in 10.0 mi West 4.6 mph - N/A   Overcast
2:55 AM 28.4 °F 22.2 °F 23.0 °F 80% 30.23 in 10.0 mi West 5.8 mph - N/A   Overcast
3:15 AM 28.4 °F 23.3 °F 21.2 °F 74% 30.23 in 10.0 mi West 4.6 mph - N/A   Scattered Clouds
3:35 AM 28.4 °F 22.2 °F 21.2 °F 74% 30.23 in 10.0 mi WSW 5.8 mph - N/A   Scattered Clouds
3:55 AM 28.4 °F 24.6 °F 21.2 °F 74% 30.24 in 10.0 mi WSW 3.5 mph - N/A   Scattered Clouds
4:15 AM 28.4 °F 24.6 °F 21.2 °F 74% 30.24 in 10.0 mi WSW 3.5 mph - N/A   Overcast
4:35 AM 28.4 °F 21.2 °F 21.2 °F 74% 30.25 in 10.0 mi WSW 6.9 mph - N/A   Overcast
4:55 AM 28.4 °F 23.3 °F 23.0 °F 80% 30.25 in 10.0 mi West 4.6 mph - N/A   Overcast
5:15 AM 26.6 °F - 21.2 °F 80% 30.26 in 10.0 mi Calm Calm - N/A   Scattered Clouds
5:35 AM 26.6 °F 21.2 °F 21.2 °F 80% 30.26 in 10.0 mi SSW 4.6 mph - N/A   Scattered Clouds
5:55 AM 26.6 °F 22.6 °F 21.2 °F 80% 30.27 in 10.0 mi SSW 3.5 mph - N/A   Mostly Cloudy
6:15 AM 28.4 °F - 21.2 °F 74% 30.27 in 10.0 mi Calm Calm - N/A   Mostly Cloudy
6:35 AM 28.4 °F - 21.2 °F 74% 30.26 in 10.0 mi Calm Calm - N/A   Mostly Cloudy
6:55 AM 26.6 °F 22.6 °F 21.2 °F 80% 30.27 in 10.0 mi SW 3.5 mph - N/A   Scattered Clouds
7:15 AM 26.6 °F 22.6 °F 19.4 °F 74% 30.28 in 10.0 mi SW 3.5 mph - N/A   Clear
7:35 AM 26.6 °F - 19.4 °F 74% 30.28 in 10.0 mi Calm Calm - N/A   Clear
7:55 AM 28.4 °F - 21.2 °F 74% 30.29 in 10.0 mi Calm Calm - N/A   Clear
8:15 AM 30.2 °F 25.4 °F 21.2 °F 69% 30.30 in 10.0 mi SW 4.6 mph - N/A   Clear
8:35 AM 30.2 °F 21.3 °F 21.2 °F 69% 30.30 in 10.0 mi South 10.4 mph - N/A   Clear
8:55 AM 32.0 °F 24.2 °F 21.2 °F 64% 30.30 in 10.0 mi South 9.2 mph - N/A   Clear
9:15 AM 32.0 °F 22.1 °F 21.2 °F 64% 30.30 in 10.0 mi SSE 13.8 mph - N/A   Clear
9:35 AM 32.0 °F 23.0 °F 21.2 °F 64% 30.30 in 10.0 mi South 11.5 mph - N/A   Clear
9:55 AM 33.8 °F 25.8 °F 19.4 °F 56% 30.28 in 10.0 mi SSE 10.4 mph - N/A   Clear
10:15 AM 33.8 °F 27.0 °F 19.4 °F 56% 30.29 in 10.0 mi SSE 8.1 mph - N/A   Clear
10:35 AM 33.8 °F 28.6 °F 19.4 °F 56% 30.28 in 10.0 mi SE 5.8 mph - N/A   Clear
10:55 AM 35.6 °F 29.9 °F 19.4 °F 52% 30.27 in 10.0 mi SSE 6.9 mph - N/A   Clear
11:15 AM 35.6 °F 31.7 °F 19.4 °F 52% 30.27 in 10.0 mi SSE 4.6 mph - N/A   Clear
11:35 AM 35.6 °F - 19.4 °F 52% 30.27 in 10.0 mi Calm Calm - N/A   Clear
11:55 AM 37.4 °F 33.8 °F 19.4 °F 48% 30.27 in 10.0 mi East 4.6 mph - N/A   Clear
12:15 PM 37.4 °F 33.8 °F 19.4 °F 48% 30.26 in 10.0 mi SSW 4.6 mph - N/A   Clear
12:35 PM 37.4 °F 34.9 °F 21.2 °F 52% 30.26 in 10.0 mi NNE 3.5 mph - N/A   Clear
12:55 PM 37.4 °F - 21.2 °F 52% 30.25 in 10.0 mi Calm Calm - N/A   Clear
1:15 PM 37.4 °F - 21.2 °F 52% 30.24 in 10.0 mi Calm Calm - N/A   Clear
1:35 PM 39.2 °F 35.0 °F 21.2 °F 49% 30.24 in 10.0 mi ENE 5.8 mph - N/A   Clear
2:15 PM 41.0 °F 35.8 °F 23.0 °F 49% 30.22 in 10.0 mi ENE 8.1 mph - N/A   Clear
2:35 PM 41.0 °F 35.8 °F 21.2 °F 45% 30.22 in 10.0 mi ENE 8.1 mph - N/A   Scattered Clouds
2:55 PM 41.0 °F 35.8 °F 23.0 °F 49% 30.22 in 10.0 mi East 8.1 mph - N/A   Scattered Clouds
3:15 PM 41.0 °F 35.2 °F 21.2 °F 45% 30.21 in 10.0 mi East 9.2 mph - N/A   Scattered Clouds
3:35 PM 39.2 °F 33.6 °F 23.0 °F 52% 30.22 in 10.0 mi East 8.1 mph - N/A   Clear
3:55 PM 37.4 °F 32.8 °F 23.0 °F 56% 30.22 in 10.0 mi East 5.8 mph - N/A   Clear
4:15 PM 39.2 °F 35.9 °F 23.0 °F 52% 30.22 in 10.0 mi East 4.6 mph - N/A   Clear
4:35 PM 37.4 °F - 23.0 °F 56% 30.23 in 10.0 mi Calm Calm - N/A   Clear
4:55 PM 37.4 °F - 23.0 °F 56% 30.23 in 10.0 mi Calm Calm - N/A   Clear
5:15 PM 37.4 °F 34.9 °F 21.2 °F 52% 30.23 in 10.0 mi East 3.5 mph - N/A   Scattered Clouds
5:35 PM 37.4 °F - 23.0 °F 56% 30.23 in 10.0 mi Calm Calm - N/A   Scattered Clouds
5:55 PM 37.4 °F 34.9 °F 21.2 °F 52% 30.23 in 10.0 mi SE 3.5 mph - N/A   Clear
6:15 PM 35.6 °F 32.8 °F 19.4 °F 52% 30.23 in 10.0 mi SE 3.5 mph - N/A   Clear
6:35 PM 37.4 °F 30.8 °F 15.8 °F 41% 30.23 in 10.0 mi South 9.2 mph - N/A   Clear
6:55 PM 37.4 °F 32.1 °F 15.8 °F 41% 30.23 in 10.0 mi SSE 6.9 mph - N/A   Clear
7:15 PM 33.8 °F 27.0 °F 23.0 °F 65% 30.23 in 10.0 mi East 8.1 mph - N/A   Clear
7:35 PM 33.8 °F 25.8 °F 23.0 °F 65% 30.23 in 10.0 mi East 10.4 mph - N/A   Clear
7:55 PM 33.8 °F 26.4 °F 23.0 °F 65% 30.24 in 10.0 mi East 9.2 mph - N/A   Clear
8:15 PM 33.8 °F 29.6 °F 23.0 °F 65% 30.23 in 10.0 mi East 4.6 mph - N/A   Clear
8:35 PM 33.8 °F 27.0 °F 23.0 °F 65% 30.24 in 10.0 mi ESE 8.1 mph - N/A   Clear
8:55 PM 32.0 °F 23.0 °F 21.2 °F 64% 30.24 in 10.0 mi ESE 11.5 mph - N/A   Scattered Clouds
9:15 PM 33.8 °F 26.4 °F 21.2 °F 60% 30.24 in 10.0 mi ESE 9.2 mph 19.6 mph N/A   Scattered Clouds
9:35 PM 33.8 °F 27.7 °F 21.2 °F 60% 30.24 in 10.0 mi ESE 6.9 mph - N/A   Scattered Clouds
9:55 PM 33.8 °F 25.8 °F 19.4 °F 56% 30.25 in 10.0 mi East 10.4 mph 17.3 mph N/A   Scattered Clouds
10:15 PM 32.0 °F 24.2 °F 21.2 °F 64% 30.24 in 10.0 mi East 9.2 mph - N/A   Scattered Clouds
10:35 PM 32.0 °F 23.0 °F 23.0 °F 69% 30.24 in 10.0 mi East 11.5 mph - N/A   Clear
10:55 PM 32.0 °F 24.2 °F 21.2 °F 64% 30.25 in 10.0 mi ESE 9.2 mph 17.3 mph N/A   Clear
11:15 PM 32.0 °F 24.2 °F 23.0 °F 69% 30.24 in 10.0 mi East 9.2 mph - N/A   Mostly Cloudy
11:35 PM 32.0 °F 24.2 °F 23.0 °F 69% 30.23 in 10.0 mi East 9.2 mph - N/A   Mostly Cloudy
11:55 PM 32.0 °F 25.6 °F 21.2 °F 64% 30.24 in 10.0 mi East 6.9 mph - N/A   Scattered Clouds